This is the latest recevied weather packets stored in our database for station/object KD8OZS. If no packets are shown the sender has not sent any weather packets the latest 10 day(s).
| Time | Temp. | Humidity | Pressure | Rain* | Wind** | Luminosity | Snow |
|---|---|---|---|---|---|---|---|
| 1778038221 | 9.44° C | 98% | 1001.2 hPa | 3.05 mm | - | 0 W/m² | - |
| 1778037919 | 10° C | 98% | 1001.1 hPa | 3.05 mm | - | 0 W/m² | - |
| 1778037615 | 10° C | 98% | 1001.1 hPa | 3.05 mm | - | 0 W/m² | - |
| 1778037313 | 10° C | 98% | 1001.2 hPa | 3.05 mm | - | 0 W/m² | - |
| 1778037010 | 10.56° C | 98% | 1000.7 hPa | 3.05 mm | - | 0 W/m² | - |
| 1778036708 | 10.56° C | 98% | 1000.9 hPa | 3.05 mm | - | 0 W/m² | - |
| 1778036405 | 10.56° C | 98% | 1000.7 hPa | 3.05 mm | - | 0 W/m² | - |
| 1778036101 | 10.56° C | 98% | 1000.7 hPa | 3.05 mm | - | 0 W/m² | - |
| 1778035798 | 10.56° C | 98% | 1000.7 hPa | 4.83 mm | - | 0 W/m² | - |
| 1778035495 | 10.56° C | 98% | 1000.6 hPa | 3.05 mm | - | 0 W/m² | - |
| 1778035190 | 10.56° C | 98% | 1001 hPa | 3.05 mm | - | 0 W/m² | - |
| 1778034888 | 10.56° C | 98% | 1000.9 hPa | 3.05 mm | - | 0 W/m² | - |
| 1778034584 | 10.56° C | 98% | 1001 hPa | 3.56 mm | - | 0 W/m² | - |
| 1778034282 | 10.56° C | 98% | 1000.9 hPa | 1.78 mm | - | 0 W/m² | - |
| 1778033980 | 10.56° C | 98% | 1000.7 hPa | 1.27 mm | - | 0 W/m² | - |
| 1778033677 | 10.56° C | 98% | 1001 hPa | 1.27 mm | - | 0 W/m² | - |
| 1778033374 | 10.56° C | 98% | 1001.1 hPa | 0 mm | - | 0 W/m² | - |
| 1778033072 | 11.11° C | 98% | 1000.9 hPa | 1.78 mm | - | 0 W/m² | - |
| 1778032768 | 11.11° C | 98% | 1000.7 hPa | 1.27 mm | - | 0 W/m² | - |
| 1778032466 | 11.67° C | 98% | 1000.9 hPa | 1.27 mm | - | 0 W/m² | - |
| 1778032163 | 11.67° C | 98% | 1000.7 hPa | 1.78 mm | - | 0 W/m² | - |
| 1778031860 | 11.67° C | 98% | 1000.5 hPa | 3.05 mm | - | 0 W/m² | - |
| 1778031556 | 11.67° C | 98% | 1000.7 hPa | 4.32 mm | - | 0 W/m² | - |
| 1778031255 | 13.33° C | 97% | 1000.5 hPa | 6.1 mm | - | 0 W/m² | - |
| 1778030950 | 13.89° C | 98% | 1000.4 hPa | 8.89 mm | - | 0 W/m² | - |
* Rain latest hour (hover to see other rain measurements)
** Current wind speed in m/s (hover to see current wind gust speed)